Weather History for Whiting Fld NAS, FL

Change the Weather History Date:

Thursday, April 17, 2014

  Actual Average Record
Temperature  
Mean Temperature 61 °F -  
Max Temperature 73 °F 75 °F 89 °F (2006)
Min Temperature 50 °F 54 °F 42 °F (2008)
Degree Days  
Heating Degree Days 4    
Growing Degree Days 11 (Base 50)    
Moisture  
Dew Point 51 °F    
Average Humidity 72    
Maximum Humidity 93    
Minimum Humidity 51    
Precipitation  
Precipitation 0.31 in - - ()
Sea Level Pressure  
Sea Level Pressure 30.17 in    
Wind  
Wind Speed 9 mph (ENE)    
Max Wind Speed 15 mph    
Max Gust Speed -    
Visibility 8 miles    
Events Rain , Thunderstorm    
Averages and records for this station are not official NWS values.
T = Trace of Precipitation, MM = Missing Value Source: NWS Daily Summary

Daily Weather History Graph

Daily Weather History Graph

Search for Another Location

Airport:

Trip Planner

Search our weather history database for the weather conditions in past years. The results will help you decide how hot, cold, wet, or windy it might be!

Date:

Astronomy

Apr. 17, 2014 Rise Set
Actual Time 6:18 AM CDT 7:17 PM CDT
Civil Twilight 5:53 AM CDT 7:42 PM CDT
Nautical Twilight 5:24 AM CDT 8:11 PM CDT
Astronomical Twilight 4:53 AM CDT 8:41 PM CDT
Moon 9:54 PM CDT (4/17) 7:56 AM CDT (4/17)
Length of Visible Light 13h 48m
Length of Day
12h 59m
Waning Gibbous, 93% of the Moon is Illuminated
Apr 17
Waning Gibbous
Apr 22
Last Quarter
Apr 29
New
May 6
First Quarter
May 14
Full

Hourly Weather History & Observations

Time (CDT) Temp. Dew Point Humidity Pressure Visibility Wind Dir Wind Speed Gust Speed Precip Events Conditions
12:56 AM 51.1 °F 41.0 °F 68% 30.14 in 10.0 mi East 8.1 mph - N/A   Clear
1:56 AM 52.0 °F 42.1 °F 69% 30.14 in 10.0 mi East 10.4 mph - N/A   Clear
2:56 AM 51.1 °F 43.0 °F 74% 30.14 in 10.0 mi East 10.4 mph - N/A   Clear
3:56 AM 51.1 °F 44.1 °F 77% 30.15 in 10.0 mi East 10.4 mph - N/A   Scattered Clouds
4:56 AM 50.0 °F 44.1 °F 80% 30.16 in 10.0 mi ENE 10.4 mph - N/A   Clear
5:56 AM 51.1 °F 45.0 °F 80% 30.17 in 10.0 mi East 10.4 mph - N/A   Mostly Cloudy
6:56 AM 51.1 °F 45.0 °F 80% 30.19 in 9.0 mi East 8.1 mph - N/A   Mostly Cloudy
7:56 AM 53.1 °F 46.0 °F 77% 30.21 in 9.0 mi ENE 12.7 mph - N/A   Mostly Cloudy
8:56 AM 57.9 °F 48.0 °F 70% 30.21 in 10.0 mi East 15.0 mph - N/A   Mostly Cloudy
9:56 AM 63.0 °F 48.9 °F 60% 30.23 in 10.0 mi NE 9.2 mph - N/A   Mostly Cloudy
10:56 AM 64.9 °F 50.0 °F 58% 30.22 in 10.0 mi NE 9.2 mph - N/A   Mostly Cloudy
11:56 AM 68.0 °F 51.1 °F 55% 30.20 in 10.0 mi East 9.2 mph - N/A   Mostly Cloudy
12:56 PM 70.0 °F 52.0 °F 53% 30.18 in 10.0 mi Variable 6.9 mph - N/A   Mostly Cloudy
1:56 PM 72.0 °F 53.1 °F 51% 30.16 in 10.0 mi Variable 5.8 mph - N/A   Overcast
2:56 PM 72.0 °F 53.1 °F 51% 30.13 in 10.0 mi East 8.1 mph - N/A   Overcast
3:56 PM 71.1 °F 54.0 °F 55% 30.12 in 10.0 mi ENE 9.2 mph - N/A   Overcast
4:56 PM 70.0 °F 54.0 °F 57% 30.12 in 10.0 mi ENE 10.4 mph - N/A   Overcast
5:56 PM 69.1 °F 54.0 °F 58% 30.12 in 10.0 mi ENE 10.4 mph - N/A   Overcast
6:56 PM 66.9 °F 54.0 °F 63% 30.12 in 10.0 mi ENE 9.2 mph - N/A   Overcast
7:56 PM 66.0 °F 54.0 °F 65% 30.12 in 10.0 mi ENE 9.2 mph - N/A   Overcast
8:32 PM 66.0 °F 54.0 °F 65% 30.17 in 10.0 mi ENE 10.4 mph - 0.00 in Rain Light Rain
8:56 PM 64.0 °F 54.0 °F 70% 30.13 in 10.0 mi ENE 12.7 mph - 0.00 in   Overcast
9:56 PM 63.0 °F 55.9 °F 78% 30.17 in 4.0 mi Calm Calm - 0.00 in Rain Rain
10:19 PM 61.0 °F 55.9 °F 83% 30.21 in 2.0 mi NE 4.6 mph - 0.05 in Rain , Thunderstorm Heavy Thunderstorms and Rain
10:37 PM 60.1 °F 57.0 °F 90% 30.20 in 2.0 mi North 4.6 mph - 0.11 in Rain , Thunderstorm Thunderstorms and Rain
11:00 PM 60.1 °F 57.0 °F 90% 30.20 in 3.0 mi NE 4.6 mph - 0.01 in Rain Rain
11:06 PM 60.1 °F 57.0 °F 90% 30.20 in 1.8 mi NNE 4.6 mph - 0.08 in Rain Heavy Rain
11:27 PM 59.0 °F 57.0 °F 93% 30.19 in 1.5 mi NNE 5.8 mph - 0.24 in Rain Heavy Rain
11:46 PM 59.0 °F 57.0 °F 93% 30.18 in 3.0 mi NNE 5.8 mph - 0.31 in Rain Light Rain
11:56 PM 59.0 °F 57.0 °F 93% 30.14 in 4.0 mi Variable 6.9 mph - 0.31 in Rain Rain